Location: Mainz-Finthen
(49.9906°N, 8.1713°E)
Time: 08:06:29
(UTC+00:00)

N. Korean satellite - Pass Details

Date: 06 December 2022
Orbit: 407 x 442 km, 97.3° (Epoch: 04 February)

Event Time Altitude Azimuth Distance (km) Brightness Sun altitude
Rises 03:46:08 0° 30° (NNE) 2,514 10.6 -31.7°
Reaches altitude 10° 03:49:01 10° 56° (NE) 1,623 9.9 -31.2°
Maximum altitude 03:50:56 14° 90° (E) 1,378 9.6 -30.9°
Drops below altitude 10° 03:52:50 10° 124° (ESE) 1,601 9.8 -30.6°
Sets 03:55:38 0° 150° (SSE) 2,454 10.5 -30.2°
